Regional Weather Roundup
Issued by NWS

Home | Current Version | Previous Version | Graphics & Text | Print | Product List | Glossary On
Versions: 1 2 3 4 5 6 7 8 9 10 11 12 13 14 15 16 17 18 19 20 21 22 23 24 25 26 27
000
ASUS45 KTFX 270610
RWRMT
MONTANA REGIONAL WEATHER ROUNDUP
NATIONAL WEATHER SERVICE GREAT FALLS MT
1200 AM MDT MON MAR 27 2017

NOTE: "FAIR" INDICATES FEW OR NO CLOUDS BELOW 12000 FEET WITH NO
SIGNIFICANT WEATHER AND/OR OBSTRUCTIONS TO VISIBILITY.

MTZ001>007-043-270700-
WEST OF THE DIVIDE

CITY           SKY/WX    TMP DP  RH WIND       PRES   REMARKS
KALISPELL      LGT RAIN  43  36  76 S10       29.82R
MISSOULA       CLOUDY    42  38  85 E5        29.84S
BUTTE          CLOUDY    38  29  70 CALM      29.83F
MULLAN PASS    SNOW      30  30 100 S5        29.77F VSB 1/4
ANACONDA         N/A     39  28  65 S5        29.83S
DEER LODGE       N/A     37  34  87 CALM      29.84F
EUREKA           N/A     45  30  57 S12       29.80R
HAMILTON         N/A     43  34  70 S9        29.82F
PLAINS           N/A     42  35  76 CALM      29.84
RONAN            N/A     42  37  82 E2        29.88S
$$

MTZ008-052>055-270700-
SOUTHWEST MONTANA

CITY           SKY/WX    TMP DP  RH WIND       PRES   REMARKS
BOZEMAN        CLOUDY    43  31  62 NE7       29.83F
DILLON         CLOUDY    36  31  82 E5        29.83F
W YELLOWSTONE  LGT SNOW  32  32 100 CALM      29.90F
ENNIS          CLOUDY    37  30  75 S12       29.89F WCI  30
THREE FORKS      N/A     43 -39   2 NW5       29.85F
TWIN BRIDGES     N/A     38  28  67 SE6       29.84
$$

MTZ009-010-012-014-046-048-049-054-270700-
EAST SLOPES AND CENTRAL MONTANA

CITY           SKY/WX    TMP DP  RH WIND       PRES   REMARKS
CUT BANK       CLOUDY    43  24  47 VRB3      29.80S
GREAT FALLS    CLOUDY    44  16  32 E7        29.79F
MALMSTROM AFB  CLOUDY    44  20  37 SE7       29.80F
HELENA         CLOUDY    47  30  51 CALM      29.81F
AUGUSTA        CLOUDY    44  24  45 SW3       29.80S
BOWMANS CRNR   CLOUDY    42  23  45 SW10      29.77F
CHOTEAU          N/A     43  16  33 SE5       29.82S
CONRAD           N/A     41  27  57 CALM      29.84S
FAIRFIELD      CLOUDY    42  15  34 E10       29.79S
POWER            N/A     40  19  43 NE8       29.79F
RAYNESFORD     MOCLDY    47  23  38 SW8       29.81F
$$

MTZ011-013-016-021-045-047-050-051-270700-
NORTH CENTRAL MONTANA

CITY           SKY/WX    TMP DP  RH WIND       PRES   REMARKS
HAVRE          PTCLDY    39  24  55 SE6       29.83S
LEWISTOWN      CLOUDY    42  25  50 E10       29.82F
N BAR RANCH    MOCLDY    39  23  52 W6        29.85F
CHINOOK          N/A     37  23  56 E3        29.84F
DENTON         CLOUDY    42  26  53 CALM      29.78F
FORT BENTON      N/A    N/A N/A N/A MISG      29.82S
GEYSER         MOCLDY    40  22  47 SW6       29.82S
GRASS RANGE    MOCLDY    38  28  66 W7        29.81F
STANFORD       MOCLDY    37  22  53 W6        29.82S
WINIFRED       CLOUDY    42  26  52 E15       29.81F
$$

MTZ017>020-022>027-061-062-270700-
NORTHEAST MONTANA

CITY           SKY/WX    TMP DP  RH WIND       PRES   REMARKS
GLASGOW        CLOUDY    38  24  57 NE8       29.86S
JORDAN           N/A     36  26  67 CALM      29.85S
SIDNEY         PTCLDY    36  26  67 NW5       29.89S
WOLF POINT     CLOUDY    36  30  79 NE3       29.88S
MALTA          CLEAR     34  27  75 E5        29.85F
PLENTYWOOD       N/A     41  19  42 CALM      29.88F
POPLAR           N/A     37  28  70 NW5       29.88F
SCOBEY           N/A     27  13  55 CALM      29.87
$$

MTZ028>42-056>058-270700-
SOUTHCENTRAL AND SOUTHEAST MONTANA

CITY           SKY/WX    TMP DP  RH WIND       PRES   REMARKS
BAKER          PTCLDY    40  33  76 S3        29.89R
BILLINGS       CLOUDY    50  31  48 SE6       29.81F
LIVINGSTON     CLOUDY    44  25  47 W9        29.83F
MILES CITY     PTCLDY    43  31  62 NE8       29.85F
BIG TIMBER     MOCLDY    46  25  42 W12G17    29.85S
EKALAKA          N/A     40  32  73 E8        29.88
FORSYTH          N/A     45  34  65 E3        29.83F
HARLOWTON      MOCLDY    43  25  49 W9        29.82S
LAUREL           N/A     48  27  44 CALM      29.81S
$$

REGIONAL REPORTS...DAKOTAS

CITY           SKY/WX    TMP DP  RH WIND       PRES   REMARKS
WILLISTON      PTCLDY    35  28  75 NW3       29.89S
MINOT          MOCLDY    42  35  76 SE3       29.87F
DICKINSON      CLEAR     38  31  76 S6        29.86F
BEACH            N/A    N/A N/A N/A MISG        N/A
TIOGA            N/A     36  36 100 W3        29.90S
WATFORD CITY     N/A     34  30  86 CALM      29.88F
BISMARCK       PTCLDY    37  33  85 E3        29.93S
GRAND FORKS    CLOUDY    40  39  97 CALM      29.96R
FARGO          PTCLDY    34  33  96 CALM      29.95R
BUFFALO SD       N/A     40  36  86 S5        29.84F
RAPID CITY     CLEAR     33  31  92 S3        29.94S FOG
$$

REGIONAL REPORTS...WYOMING/IDAHO/WASHINGTON

CITY           SKY/WX    TMP DP  RH WIND       PRES   REMARKS
GILLETTE       CLOUDY    39  34  82 S12       29.89F WCI  32
SHERIDAN       CLOUDY    41  32  70 CALM      29.84F
BUFFALO WY     CLOUDY    42  29  59 SE5       29.87F
CODY           CLOUDY    47  21  35 VRB6      29.86F
YELLOWSTONE LA   N/A     28  26  92 CALM      29.93F
IDAHO FALLS    LGT RAIN  42  38  85 S9        29.93F
SALMON         CLOUDY    43  30  61 CALM      29.83S
BOISE          LGT RAIN  48  35  60 VRB7      29.86S
SPOKANE        CLOUDY    42  40  92 S3        29.81F
$$

REGIONAL REPORTS...ALBERTA

CITY           SKY/WX    TMP DP  RH WIND       PRES   REMARKS
EDMONTON       CLEAR     34  30  86 SE7       29.78S WCI  28
CALGARY        MOCLDY    37  21  52 S6        29.71S
LETHBRIDGE     CLOUDY    43  25  49 SW8       29.77S
MEDICINE HAT   MOCLDY    34  21  60 NE7       29.80S WCI  28
WATERTON GATE    N/A     37  28  70 SW13G18     N/A  WCI  29
CARDSTON         N/A     41  23  48 S3          N/A
MILK RIVER       N/A     46  27  46 W12G18      N/A
$$

REGIONAL REPORTS...SASKATCHEWAN

CITY           SKY/WX    TMP DP  RH WIND       PRES   REMARKS
SWIFT CURRENT  CLEAR     32  28  86 E9        29.85R WCI  24
REGINA         FOG       30  30 100 N9        29.88S VSB 3/4 WCI  22
SASKATOON      CLOUDY    28  27  93 E7        29.96S WCI  21
ROCKGLEN         N/A     37  16  41 SW3         N/A
ASSINIBOIA       N/A     34  32  93 SE7         N/A  WCI  28
$$




USA.gov is the U.S. government's official web portal to all federal, state and local government web resources and services.